Location: Cointrin
(46.2167°N, 6.1167°E)
Time: 05:28:25
(UTC+00:00)

Cosmos 2237 Rocket - Pass Details

Date: 08 February 2023
Orbit: 835 x 849 km, 71.0° (Epoch: 25 March)

Event Time Altitude Azimuth Distance (km) Brightness Sun altitude
Rises 20:23:26 0° 231° (SW) 3,400 5.7 -36.9°
Reaches altitude 10° 20:26:04 10° 240° (WSW) 2,470 5.0 -37.4°
Enters shadow 20:29:24 29° 269° (W) 1,518 3.9 -37.9°
